Location: Cheching
(60.0667°N, 164.2167°W)
Time: 21:27:35
(UTC+00:00)

LilacSat-2 - Pass Details

Date: 26 January 2021
Orbit: 512 x 534 km, 97.5° (Epoch: 07 March)

Event Time Altitude Azimuth Distance (km) Brightness Sun altitude
Rises 16:23:16 0° 20° (NNE) 2,693 ? -21.7°
Reaches altitude 10° 16:25:33 10° 30° (NNE) 1,800 ? -21.4°
Maximum altitude 16:29:07 34° 96° (E) 899 ? -21.0°
Drops below altitude 10° 16:32:40 10° 163° (SSE) 1,791 ? -20.6°
Sets 16:34:55 0° 172° (S) 2,678 ? -20.3°
